Hourly Weather Rudihovo

Today, 26 July, Monday

Time Temperature Precipitation Wind Pressure Humidity
00:00 +14°C° 0 mm 1 mps 749 mmHg 71%
01:00 +15°C° 0 mm 1 mps 749 mmHg 68%
02:00 +16°C° 0 mm 1 mps 749 mmHg 66%
03:00 +16°C° 0 mm 1 mps 749 mmHg 65%
04:00 +16°C° 0 mm 1 mps 749 mmHg 63%
05:00 +18°C° 0 mm 1 mps 749 mmHg 62%
06:00 +19°C° 0 mm 1 mps 749 mmHg 57%
07:00 +20°C° 0 mm 2 mps 749 mmHg 52%
08:00 +21°C° 0 mm 2 mps 749 mmHg 47%
09:00 +24°C° 0 mm 2 mps 749 mmHg 43%
10:00 +25°C° 0 mm 2 mps 749 mmHg 38%
11:00 +26°C° 0 mm 2 mps 749 mmHg 34%
12:00 +27°C° 0 mm 3 mps 749 mmHg 34%
13:00 +27°C° 0 mm 3 mps 749 mmHg 34%
14:00 +27°C° 0 mm 3 mps 748 mmHg 34%
15:00 +27°C° 0 mm 3 mps 748 mmHg 34%
16:00 +27°C° 0 mm 2 mps 748 mmHg 35%
17:00 +27°C° 0 mm 2 mps 748 mmHg 35%
18:00 +25°C° 0 mm 2 mps 748 mmHg 41%
19:00 +24°C° 0 mm 1 mps 748 mmHg 46%
20:00 +22°C° 0 mm 1 mps 748 mmHg 52%
21:00 +21°C° 0 mm 1 mps 748 mmHg 56%
22:00 +20°C° 0 mm 1 mps 748 mmHg 60%
23:00 +19°C° 0 mm 1 mps 749 mmHg 64%

Tomorrow, 27 July, Tuesday

Time Temperature Precipitation Wind Pressure Humidity
00:00 +18°C° 0 mm 1 mps 749 mmHg 66%
01:00 +18°C° 0 mm 1 mps 749 mmHg 67%
02:00 +18°C° 0 mm 1 mps 749 mmHg 68%
03:00 +18°C° 0 mm 1 mps 749 mmHg 68%
04:00 +19°C° 0 mm 1 mps 749 mmHg 67%
05:00 +19°C° 0 mm 1 mps 749 mmHg 66%
06:00 +21°C° 0 mm 1 mps 749 mmHg 60%
07:00 +21°C° 0 mm 0 mps 749 mmHg 54%
08:00 +23°C° 0 mm 0 mps 749 mmHg 47%
09:00 +26°C° 0 mm 1 mps 749 mmHg 43%
10:00 +28°C° 0 mm 1 mps 749 mmHg 39%
11:00 +29°C° 0 mm 1 mps 749 mmHg 35%
12:00 +29°C° 0 mm 2 mps 748 mmHg 34%
13:00 +29°C° 0 mm 2 mps 748 mmHg 33%
14:00 +29°C° 0 mm 2 mps 748 mmHg 32%
15:00 +29°C° 0 mm 2 mps 747 mmHg 34%
16:00 +29°C° 0 mm 1 mps 747 mmHg 36%
17:00 +28°C° 0 mm 1 mps 747 mmHg 38%
18:00 +26°C° 0 mm 1 mps 747 mmHg 45%
19:00 +24°C° 0 mm 2 mps 747 mmHg 52%
20:00 +21°C° 0 mm 2 mps 747 mmHg 60%
21:00 +20°C° 0 mm 2 mps 747 mmHg 65%
22:00 +18°C° 0 mm 2 mps 746 mmHg 70%
23:00 +17°C° 0 mm 2 mps 746 mmHg 75%

Day after tomorrow, 28 July, Wednesday

Time Temperature Precipitation Wind Pressure Humidity
00:00 +17°C° 0 mm 2 mps 746 mmHg 78%
01:00 +16°C° 0 mm 1 mps 746 mmHg 81%
02:00 +16°C° 0 mm 1 mps 746 mmHg 84%
03:00 +16°C° 0 mm 1 mps 746 mmHg 83%
04:00 +18°C° 0 mm 1 mps 745 mmHg 81%
05:00 +19°C° 0 mm 1 mps 745 mmHg 79%
06:00 +21°C° 0 mm 1 mps 745 mmHg 71%
07:00 +23°C° 0 mm 2 mps 745 mmHg 62%
08:00 +26°C° 0 mm 2 mps 744 mmHg 53%
09:00 +27°C° 0 mm 2 mps 744 mmHg 47%
10:00 +29°C° 0 mm 3 mps 743 mmHg 42%
11:00 +30°C° 0 mm 3 mps 743 mmHg 36%
12:00 +30°C° 0 mm 3 mps 742 mmHg 36%
13:00 +30°C° 0 mm 3 mps 742 mmHg 37%
14:00 +30°C° 0 mm 4 mps 741 mmHg 38%
15:00 +27°C° 0.6 mm 3 mps 741 mmHg 55%
16:00 +24°C° 0.6 mm 3 mps 741 mmHg 72%
17:00 +19°C° 0.6 mm 3 mps 741 mmHg 89%
18:00 +19°C° 0.8 mm 3 mps 741 mmHg 92%
19:00 +18°C° 0.8 mm 3 mps 740 mmHg 95%
20:00 +18°C° 0.8 mm 2 mps 739 mmHg 98%
21:00 +18°C° 0.9 mm 2 mps 739 mmHg 98%
22:00 +18°C° 0.9 mm 2 mps 738 mmHg 98%
23:00 +18°C° 0.9 mm 2 mps 738 mmHg 98%

29 July, Thursday

Time Temperature Precipitation Wind Pressure Humidity
00:00 +18°C° 0.6 mm 2 mps 737 mmHg 98%
01:00 +18°C° 0.6 mm 3 mps 737 mmHg 98%
02:00 +18°C° 0.6 mm 3 mps 736 mmHg 98%
03:00 +18°C° 0.3 mm 3 mps 736 mmHg 98%
04:00 +18°C° 0.3 mm 3 mps 736 mmHg 98%
05:00 +18°C° 0.3 mm 4 mps 736 mmHg 98%
06:00 +18°C° 0.1 mm 3 mps 737 mmHg 96%
07:00 +19°C° 0.1 mm 3 mps 737 mmHg 94%
08:00 +19°C° 0.1 mm 3 mps 737 mmHg 93%
09:00 +21°C° 0.2 mm 4 mps 737 mmHg 82%
10:00 +23°C° 0.2 mm 4 mps 737 mmHg 72%
11:00 +25°C° 0.2 mm 5 mps 737 mmHg 62%
12:00 +26°C° 0 mm 5 mps 737 mmHg 54%
13:00 +27°C° 0 mm 5 mps 737 mmHg 47%
14:00 +28°C° 0 mm 6 mps 737 mmHg 39%
15:00 +28°C° 0 mm 5 mps 737 mmHg 42%
16:00 +28°C° 0 mm 5 mps 736 mmHg 45%
17:00 +27°C° 0 mm 5 mps 736 mmHg 47%
18:00 +25°C° 0.1 mm 4 mps 736 mmHg 59%
19:00 +22°C° 0.1 mm 4 mps 736 mmHg 70%
20:00 +20°C° 0.1 mm 4 mps 736 mmHg 81%
21:00 +19°C° 0 mm 3 mps 736 mmHg 85%
22:00 +18°C° 0 mm 3 mps 736 mmHg 89%
23:00 +17°C° 0 mm 3 mps 736 mmHg 93%

30 July, Friday

Time Temperature Precipitation Wind Pressure Humidity
00:00 +17°C° 0 mm 3 mps 736 mmHg 94%
01:00 +17°C° 0 mm 3 mps 736 mmHg 94%
02:00 +16°C° 0 mm 3 mps 736 mmHg 95%
03:00 +16°C° 0 mm 3 mps 736 mmHg 94%
04:00 +17°C° 0 mm 3 mps 737 mmHg 92%
05:00 +17°C° 0 mm 3 mps 737 mmHg 91%
06:00 +18°C° 0 mm 4 mps 737 mmHg 79%
07:00 +20°C° 0 mm 4 mps 737 mmHg 68%
08:00 +22°C° 0 mm 5 mps 737 mmHg 56%
09:00 +23°C° 0 mm 5 mps 737 mmHg 50%
10:00 +24°C° 0 mm 6 mps 737 mmHg 44%
11:00 +26°C° 0 mm 6 mps 737 mmHg 38%
12:00 +26°C° 0 mm 6 mps 737 mmHg 35%
13:00 +27°C° 0 mm 6 mps 737 mmHg 33%
14:00 +27°C° 0 mm 6 mps 737 mmHg 31%
15:00 +27°C° 0 mm 6 mps 737 mmHg 33%
16:00 +26°C° 0 mm 5 mps 737 mmHg 35%
17:00 +26°C° 0 mm 5 mps 737 mmHg 38%
18:00 +23°C° 0 mm 4 mps 738 mmHg 45%
19:00 +21°C° 0 mm 3 mps 738 mmHg 53%
20:00 +20°C° 0 mm 1 mps 738 mmHg 61%
21:00 +19°C° 0 mm 1 mps 738 mmHg 64%
22:00 +17°C° 0 mm 2 mps 738 mmHg 67%
23:00 +17°C° 0 mm 2 mps 738 mmHg 69%

31 July, Saturday

Time Temperature Precipitation Wind Pressure Humidity
00:00 +16°C° 0 mm 2 mps 738 mmHg 71%
01:00 +16°C° 0 mm 2 mps 738 mmHg 72%
02:00 +15°C° 0 mm 2 mps 738 mmHg 74%
03:00 +16°C° 0 mm 3 mps 738 mmHg 70%
04:00 +17°C° 0 mm 3 mps 737 mmHg 67%
05:00 +18°C° 0 mm 4 mps 737 mmHg 64%
06:00 +20°C° 0 mm 4 mps 737 mmHg 60%
07:00 +21°C° 0 mm 5 mps 736 mmHg 56%
08:00 +23°C° 0 mm 5 mps 736 mmHg 52%
09:00 +22°C° 0.1 mm 5 mps 736 mmHg 59%
10:00 +21°C° 0.1 mm 5 mps 736 mmHg 65%
11:00 +20°C° 0.1 mm 5 mps 736 mmHg 72%
12:00 +20°C° 0.9 mm 5 mps 736 mmHg 79%
13:00 +19°C° 0.9 mm 5 mps 737 mmHg 87%
14:00 +17°C° 0.9 mm 5 mps 737 mmHg 94%
15:00 +19°C° 0.1 mm 5 mps 737 mmHg 92%
16:00 +20°C° 0.1 mm 4 mps 736 mmHg 89%
17:00 +20°C° 0.1 mm 4 mps 736 mmHg 87%
18:00 +19°C° 0 mm 4 mps 736 mmHg 90%
19:00 +19°C° 0 mm 3 mps 737 mmHg 94%
20:00 +18°C° 0 mm 3 mps 737 mmHg 97%
21:00 +17°C° 0 mm 3 mps 737 mmHg 97%
22:00 +17°C° 0 mm 3 mps 737 mmHg 97%
23:00 +17°C° 0 mm 3 mps 737 mmHg 97%
Show more

We Need Your Consent

Meteoprog and our Service Providers may store and access personal data such as cookies, device identifiers or other similar technologies on your device and process such data to personalise content and ads, as well as provide social media features and to analyse the traffic.

  • Store and/or access information on your device

    Cookies, device identifiers or other information can be stored or accessed on your device for the purposes indicated above.

  • Personalised ads and content, ad and content measurement, audience insights, and products development

    Ads and content can be personalised based on a profile. More data can be added to better personalise ads and content. Ad and content performance can be measured. Insights about the audience who saw the ads and content can be derived. Such data can be used to develop or improve user’s experience, systems and software.

By clicking ‘I Agree’ you will allow the use of indicated cookies, device identifiers, web beacons or other similar technologies. Your settings can be changed in the browser on your device.

For certain purposes, legitimate interests may be relied on, rather than consent. You can read more about this in our Privacy and Cookie Policy.